Theta_e
348 347 348 346 345 346 349 350 348 352 352 351 351 350 350 351 352 351 351 356 351 350 351 352 351 350 352 354 354 353 352 351 350 349 347 347 347 345 345 343 341 341 339
348 344 347 346 344 349 353 354 355 355 353 352 351 353 353 353 353 354 352 353 353 351 351 350 347 349 349 350 353 353 350 349 348 347 346 345 344 344 346 345 343 343 343
352 348 343 343 343 353 357 357 357 355 353 354 354 354 355 356 354 355 354 352 351 351 349 346 347 346 348 348 348 351 350 348 347 345 345 345 345 345 346 346 345 344 344
351 349 343 342 348 354 353 353 353 353 354 353 353 353 353 354 353 354 352 350 347 344 345 349 345 344 344 343 346 347 349 348 348 346 345 346 346 346 345 345 344 345 344
351 348 346 353 359 353 353 357 355 352 349 349 348 350 351 349 349 346 347 344 344 343 343 346 345 344 335 335 337 338 338 341 342 344 345 344 346 347 347 346 345 344 345
352 351 346 355 356 356 358 355 351 348 346 348 343 344 347 346 346 343 341 342 342 343 342 343 342 340 338 333 333 333 334 335 337 338 339 341 342 344 345 345 345 345 345
353 349 347 348 353 344 342 342 341 343 339 343 340 341 339 343 341 341 341 341 341 341 342 342 341 340 339 340 336 332 331 332 333 334 337 334 333 336 340 345 345 344 344
354 352 352 345 345 341 333 338 338 338 339 343 336 335 329 332 336 339 340 339 340 340 337 338 338 338 338 333 335 333 331 330 330 331 331 332 330 330 332 333 337 341 343
353 350 344 343 338 336 329 328 332 337 337 340 342 333 327 323 329 333 336 335 336 334 334 333 331 331 330 328 329 329 330 328 327 327 326 326 327 327 328 329 330 331 333
342 342 340 337 341 331 331 333 334 337 338 336 339 338 340 335 326 323 330 330 330 327 329 323 323 324 326 325 327 328 323 323 323 324 325 325 325 325 325 325 327 328 329
345 344 344 341 334 332 336 335 336 335 335 334 331 330 331 330 331 324 315 316 318 318 319 321 322 324 325 325 325 326 324 322 321 320 321 322 322 323 324 324 325 325 327
344 343 341 342 340 340 338 335 333 329 327 326 325 324 321 317 315 314 311 312 313 317 320 322 322 322 323 324 325 325 322 320 319 319 318 319 319 320 322 323 324 325 326
338 339 340 341 334 331 329 324 325 323 321 320 320 317 317 316 316 315 314 314 313 315 317 320 321 322 320 320 321 322 320 319 318 317 317 316 317 317 318 320 321 323 324
334 334 331 325 321 321 320 323 323 322 322 320 320 321 318 318 319 319 316 313 308 310 313 314 318 318 317 317 318 319 319 318 317 315 315 316 315 315 316 317 318 318 319
327 326 323 318 318 319 320 320 319 318 319 320 321 322 320 320 319 318 316 314 309 305 305 312 313 319 316 316 316 315 316 317 316 316 315 314 314 314 314 314 315 316 317
325 322 320 317 317 318 318 319 319 320 321 319 319 320 318 318 317 317 317 316 315 312 307 312 312 315 315 313 315 315 314 315 315 316 316 314 313 313 313 312 313 314 314
320 317 316 314 315 316 317 317 318 319 319 319 319 317 314 316 316 316 316 315 314 313 308 310 313 314 314 312 312 313 313 315 315 314 315 313 311 311 312 312 312 312 314
318 316 315 316 316 316 318 318 318 317 317 316 316 316 314 314 316 316 314 315 314 314 309 306 311 310 311 312 311 311 312 310 314 313 313 312 310 310 310 309 310 311 311
315 316 316 315 316 316 316 316 316 315 315 315 315 314 314 314 313 312 313 313 312 311 311 306 306 306 306 308 306 309 310 308 312 313 311 310 310 309 310 309 309 309 309
317 316 316 316 316 315 315 315 316 316 316 315 315 314 314 312 309 309 310 312 310 309 309 305 302 300 301 303 304 300 300 305 308 310 310 310 309 309 309 309 310 311 309
315 315 315 314 313 311 306 312 316 316 316 316 316 314 314 307 305 305 305 307 306 306 305 300 298 298 297 298 297 299 299 302 306 307 308 308 308 308 309 310 311 311 308
314 314 314 313 311 305 297 298 305 316 316 315 314 314 313 312 308 305 304 304 304 304 303 299 297 296 297 297 298 298 299 299 299 309 307 308 309 307 309 311 307 306 306
314 313 313 312 309 306 296 296 299 315 315 313 313 311 310 310 307 303 304 308 309 305 304 304 298 296 297 299 299 299 300 301 301 305 306 304 309 306 310 311 306 304 303
313 313 312 312 309 301 295 295 297 314 314 312 311 307 307 308 300 296 303 312 313 312 309 305 303 300 300 300 301 302 303 303 306 307 305 299 308 305 310 312 306 304 302
311 311 310 310 308 301 293 294 300 311 310 310 309 307 303 302 292 292 304 307 309 310 307 304 301 299 297 298 300 303 301 299 298 302 304 300 304 303 307 311 308 305 303
309 308 307 306 299 303 292 292 295 303 306 303 308 306 292 293 291 291 300 303 303 304 307 305 306 307 305 304 302 303 302 298 298 300 303 297 302 301 300 311 306 303 305
Wind_Speed
6 6 5 5 4 4 5 4 3 2 3 5 6 7 8 10 11 8 8 5 6 8 12 15 18 18 17 15 14 13 11 11 11 13 14 11 12 13 16 17 18 16 19
6 6 6 6 5 5 3 3 3 3 4 5 6 7 10 11 13 13 10 11 6 10 10 11 16 18 18 17 14 13 12 13 12 14 14 15 17 20 19 19 21 19 19
7 6 6 5 5 4 4 4 5 5 5 5 6 7 9 10 11 12 11 11 12 7 6 10 10 15 16 16 15 13 12 14 17 17 17 19 19 19 19 21 22 19 20
6 6 4 5 4 4 5 4 4 5 5 5 6 6 9 10 12 13 12 10 9 9 6 8 5 10 10 12 13 13 12 11 11 12 13 16 17 20 18 21 22 22 23
6 4 4 3 3 4 5 3 3 4 4 5 8 5 10 11 12 10 9 9 9 8 9 5 1 7 1 7 11 12 13 12 11 11 11 12 15 16 17 18 19 19 20
6 6 4 2 4 2 4 4 5 5 4 6 9 9 10 10 10 7 5 8 8 10 11 8 9 5 6 1 5 8 14 15 14 14 13 10 11 12 14 16 17 18 19
5 4 3 1 7 9 10 9 7 6 5 9 9 9 10 11 4 7 6 9 10 11 11 9 8 9 9 13 6 8 13 16 18 16 11 10 11 11 11 13 18 19 20
6 5 4 9 9 8 9 11 9 6 4 5 6 10 10 10 3 8 7 10 10 10 13 13 14 13 11 12 12 15 11 13 15 15 14 13 15 15 14 13 12 13 19
11 12 11 9 10 9 6 5 7 8 7 8 5 5 7 7 11 6 10 9 13 12 12 13 16 14 13 13 14 14 14 12 15 19 20 20 20 19 18 17 16 16 15
13 13 11 9 12 7 4 3 3 6 4 6 5 4 7 8 5 8 8 12 11 14 14 13 14 14 14 11 15 14 8 15 20 22 23 22 22 21 21 21 21 19 19
12 13 11 10 5 3 4 2 2 4 2 4 4 6 8 8 8 7 12 11 12 12 13 15 14 13 13 13 11 12 15 16 22 25 22 21 22 22 21 22 22 22 21
8 9 10 7 4 3 5 4 5 4 5 5 5 5 6 5 8 8 11 12 13 12 14 12 11 11 14 12 17 15 18 19 19 19 20 21 22 23 23 23 23 23 22
7 8 9 9 7 7 8 6 4 5 4 4 5 5 5 5 6 8 9 11 12 13 13 11 12 11 13 14 15 22 23 20 17 17 16 20 22 23 22 22 22 22 22
7 8 9 9 11 9 6 4 4 3 4 3 5 5 6 6 6 7 8 11 11 9 13 18 10 11 10 8 17 24 14 18 17 21 20 17 20 21 22 22 22 21 20
9 8 9 9 11 8 5 4 4 4 2 3 3 7 7 6 7 8 7 7 8 11 12 11 13 12 11 13 16 16 17 20 26 21 10 13 16 18 21 21 21 21 20
11 8 10 11 10 7 6 4 3 2 2 4 5 8 8 9 9 7 7 8 9 11 12 14 13 15 14 12 15 16 17 22 21 16 16 16 17 17 19 20 20 20 20
10 10 11 10 9 8 7 5 4 4 6 8 8 8 8 8 7 7 8 8 9 10 12 13 14 15 16 14 15 16 15 14 14 18 19 18 20 21 19 17 18 19 18
11 11 10 9 9 8 6 5 7 7 9 8 7 7 7 6 8 9 9 10 10 12 11 17 16 14 16 15 14 18 12 15 16 18 23 19 17 15 16 18 16 15 15
11 11 10 10 8 7 7 8 7 7 6 7 7 6 7 9 10 10 11 10 11 10 12 12 14 13 13 12 14 15 16 14 14 22 20 21 22 21 15 18 17 13 14
13 11 10 9 9 8 8 7 6 6 6 6 6 6 9 11 12 12 11 12 11 12 12 12 12 12 11 13 12 10 12 12 13 14 16 14 19 21 17 15 15 14 14
11 11 10 10 10 10 9 9 6 7 7 6 7 8 7 7 11 12 10 12 13 11 11 11 10 11 10 12 11 10 12 12 13 9 10 11 10 10 10 11 11 9 9
12 11 10 10 10 9 12 13 12 6 7 7 7 8 9 9 15 15 14 15 15 11 12 8 10 10 12 11 10 11 11 10 7 4 11 12 7 9 8 6 12 12 12
11 10 10 10 10 10 13 12 13 6 6 8 9 11 11 10 13 16 17 15 9 10 11 8 10 11 14 13 13 13 13 11 10 11 10 10 9 9 6 3 12 12 13
10 9 9 9 10 11 16 15 15 6 7 7 8 10 12 13 16 18 17 14 14 11 13 10 7 10 11 12 12 12 11 13 10 10 8 7 13 9 8 1 8 11 13
10 10 9 10 11 12 17 17 16 5 7 6 7 8 11 12 18 20 16 15 15 13 12 8 8 10 13 13 14 10 10 10 10 7 8 6 6 9 8 3 5 12 10
10 9 11 10 11 9 16 18 16 6 6 7 5 5 20 14 16 17 15 15 15 15 15 17 17 13 13 13 15 10 9 9 7 6 8 10 7 8 6 3 5 8 8
Wind_Direction
185 192 190 213 208 191 184 215 215 244 261 253 272 291 295 292 289 287 301 303 238 266 283 300 307 305 297 286 282 271 259 244 245 247 256 254 243 251 247 223 209 223 228
183 189 194 209 214 221 205 217 200 257 262 277 271 288 288 292 294 302 302 306 238 240 261 299 309 309 305 293 291 278 259 249 255 254 244 243 243 247 247 231 220 226 220
179 213 208 217 213 208 247 234 242 233 255 273 304 278 282 280 278 292 298 299 304 270 238 268 294 310 311 306 295 290 278 259 262 269 259 249 249 252 253 223 229 235 223
189 202 206 219 210 227 235 250 274 310 317 324 284 307 313 293 294 300 289 304 304 305 285 214 269 309 324 326 321 312 313 307 288 277 268 263 258 249 239 240 238 238 230
181 225 220 181 234 252 256 333 281 349 352 322 296 335 309 294 301 300 311 306 299 301 318 314 254 262 76 9 344 347 343 340 338 328 330 329 296 265 249 242 240 240 237
172 192 196 243 258 325 350 350 348 4 323 309 335 336 309 296 302 307 307 305 323 320 309 329 320 308 148 260 311 337 333 331 334 331 330 329 320 313 277 257 239 226 219
148 157 257 181 31 40 33 12 350 348 350 11 344 327 321 290 296 333 325 329 323 330 307 298 300 325 309 324 225 0 329 326 329 321 337 347 342 327 322 294 261 238 223
143 153 123 83 69 60 27 4 348 348 301 33 337 307 310 315 203 336 324 315 328 321 317 331 315 315 317 314 318 320 315 338 321 320 325 328 324 318 315 317 305 291 250
87 95 92 91 91 87 58 20 344 346 316 334 302 307 311 312 334 314 317 327 334 318 324 318 315 315 315 309 303 323 349 344 326 319 314 308 306 303 303 301 297 296 296
115 118 127 132 125 134 137 223 339 317 319 307 308 261 290 288 302 309 325 321 313 326 320 310 312 330 311 316 320 303 7 337 329 323 316 308 305 300 299 296 291 291 290
150 149 149 139 132 110 147 231 11 21 343 326 318 314 302 298 294 316 310 321 319 316 315 310 326 311 322 314 306 316 350 334 321 310 304 306 303 299 296 293 289 287 284
142 126 136 130 126 133 117 98 64 32 19 0 324 328 323 326 323 325 312 315 316 322 317 297 293 303 312 317 320 335 332 319 305 306 306 305 304 298 293 290 287 286 285
114 111 117 113 96 68 83 63 57 55 33 355 356 305 303 328 328 314 314 319 322 319 312 310 320 330 338 328 323 325 319 313 317 306 309 306 303 300 296 291 289 286 283
107 93 85 81 89 75 65 68 72 6 18 339 333 339 340 349 339 331 328 330 315 311 318 319 338 324 326 316 306 317 312 319 317 309 299 299 302 304 304 300 295 291 286
103 98 104 93 80 82 73 65 55 16 343 316 11 16 353 352 345 339 317 288 293 313 321 307 322 338 339 330 324 321 318 319 308 299 285 296 302 304 304 300 297 293 288
106 114 93 83 78 77 60 45 61 29 16 22 22 14 356 5 317 307 323 316 322 323 316 330 332 332 333 321 324 320 320 306 308 312 308 309 303 301 293 293 292 290 288
111 93 80 78 75 71 62 56 62 35 37 28 19 16 353 331 336 337 337 340 327 335 315 321 322 332 328 328 325 325 315 312 314 320 315 322 310 305 292 284 281 280 278
98 93 91 85 76 70 64 63 47 32 27 17 8 3 6 350 338 355 335 339 326 320 323 317 323 329 329 332 327 322 318 321 321 333 325 305 299 313 308 295 279 273 275
96 84 76 72 73 67 62 50 36 34 30 24 19 15 1 4 356 349 338 336 331 324 324 326 320 326 326 330 330 317 326 322 317 328 324 333 330 314 301 307 278 264 262
85 82 78 76 69 62 53 50 42 34 35 41 21 5 12 9 354 341 334 331 334 325 333 325 321 319 323 319 318 323 313 314 320 320 308 320 311 316 316 306 305 285 260
88 91 90 83 76 61 30 356 34 37 26 22 27 8 14 347 350 340 325 333 327 329 329 326 314 315 317 318 319 315 306 310 314 298 312 318 319 318 320 312 305 316 323
89 87 81 77 70 59 6 1 343 29 29 23 15 8 354 9 350 341 330 295 279 302 320 315 313 309 307 312 309 309 304 307 313 284 317 315 327 322 329 357 356 342 333
99 95 91 85 70 50 9 356 336 39 29 22 18 8 355 4 1 341 331 296 292 240 248 313 315 313 309 314 308 305 314 310 311 307 316 314 329 321 319 348 9 9 7
100 95 85 74 64 48 12 355 336 14 25 24 17 16 359 354 13 341 318 339 341 349 346 325 311 307 301 309 311 306 310 313 313 323 13 313 327 327 323 19 16 11 20
95 86 74 60 55 43 12 1 343 7 14 18 6 29 10 359 356 342 330 344 338 355 334 336 279 293 306 309 319 319 348 338 336 327 25 318 319 324 320 342 28 16 22
92 84 74 63 43 43 26 8 0 357 13 345 351 41 64 13 343 340 344 349 342 349 341 349 346 351 348 347 339 335 343 341 339 321 17 338 328 344 321 346 40 16 357